Tracking 31027 objects as of 19-Jul-2025
HD Live streaming from Space Station
objects crossing your sky now

STARLINK-30885

Track STARLINK-30885 now!
10-day predictions
STARLINK-30885 is classified as:


NORAD ID: 58361
Int'l Code: 2023-177L
Perigee: 565.4 km
Apogee: 567.0 km
Inclination: 43.0 °
Period: 95.8 minutes
Semi major axis: 6937 km
RCS: Unknown
Launch date: November 18, 2023
Source: United States (US)
Launch site: AIR FORCE EASTERN TEST RANGE (AFETR)
Your satellite tracking list
Your tracking list is empty




NASA's NSSDC Master Catalog

Two Line Element Set (TLE):
1 58361U 23177L   25199.02804176  .00000310  00000-0  38014-4 0  9991
2 58361  43.0007 186.9278 0001144 292.6375  67.4347 15.02537956 92920
Source of the keplerian elements: AFSPC